Weather reports worldwide

Advertisment
UFS TW Ems, Germany (10004): temperature & dewpoint: 11.06.2019 20:00:00 - 17.06.2019 20:00:00 (CEST)UFS TW Ems, Germany (10004): wind speed & gusts: 11.06.2019 20:00:00 - 17.06.2019 20:00:00 (CEST)UFS TW Ems, Germany (10004): reduced air pressure: 11.06.2019 20:00:00 - 17.06.2019 20:00:00 (CEST)UFS TW Ems, Germany (10004): visibility: 11.06.2019 20:00:00 - 17.06.2019 20:00:00 (CEST)UFS TW Ems, Germany (10004): sunshine duration: 11.06.2019 20:00:00 - 17.06.2019 20:00:00 (CEST)
Date & Time tt [°C] td [°C] ff [km/h] ff [kn] fx [km/h] fx [kn] ppp [hPa] vv [km] sd [min]
17.06.2019 20:00:00 - - - - - - - - -
17.06.2019 19:00:00 16,9 14,9 18 10 - - 1018,6 10 60
17.06.2019 18:00:00 16,8 15,0 22 12 - - 1018,8 10 60
17.06.2019 17:00:00 16,7 15,0 18 10 - - 1019,2 10 60
17.06.2019 16:00:00 16,5 14,8 14 8 - - 1019,5 10 60
17.06.2019 15:00:00 16,5 14,1 11 6 - - 1019,9 10 60
17.06.2019 14:00:00 16,3 14,3 7 4 - - 1020,1 10 60
17.06.2019 13:00:00 15,9 14,5 14 8 - - 1020,6 10 60
17.06.2019 12:00:00 15,5 14,4 14 8 - - 1020,7 10 60
17.06.2019 11:00:00 15,3 14,4 18 10 - - 1020,7 10 60
17.06.2019 10:00:00 15,2 14,1 22 12 - - 1020,7 10 24
17.06.2019 09:00:00 15,2 14,1 22 12 - - 1020,5 10 60
17.06.2019 08:00:00 15,2 14,0 22 12 - - 1020,2 10 60
17.06.2019 07:00:00 15,4 13,9 25 14 - - 1020,0 10 54
17.06.2019 06:00:00 15,3 13,9 22 12 - - 1020,0 7 30
17.06.2019 05:00:00 15,5 13,9 25 14 - - 1019,8 10 0
17.06.2019 04:00:00 15,4 14,0 29 16 - - 1019,6 10 0
17.06.2019 03:00:00 15,4 14,4 22 12 - - 1019,9 10 0
17.06.2019 02:00:00 - - - - - - - - -
17.06.2019 01:00:00 15,7 14,1 22 12 - - 1019,7 10 0
17.06.2019 00:00:00 15,6 13,8 25 14 - - 1019,6 10 0
16.06.2019 23:00:00 15,3 13,6 22 12 - - 1019,5 10 0
16.06.2019 22:00:00 15,0 13,5 18 10 - - 1019,6 10 48
16.06.2019 21:00:00 15,0 13,3 14 8 - - 1019,6 10 60
16.06.2019 20:00:00 15,0 13,3 11 6 - - 1019,9 10 60
16.06.2019 19:00:00 15,1 12,6 18 10 - - 1019,9 10 60
16.06.2019 18:00:00 15,0 13,0 22 12 - - 1019,7 10 60
16.06.2019 17:00:00 15,0 13,4 14 8 - - 1019,7 10 60
16.06.2019 16:00:00 15,1 13,1 18 10 - - 1019,5 10 60
16.06.2019 15:00:00 15,1 13,0 18 10 - - 1019,4 10 60
16.06.2019 14:00:00 15,1 13,2 22 12 - - 1019,0 10 60
16.06.2019 13:00:00 14,9 13,4 25 14 - - 1018,6 10 60
16.06.2019 12:00:00 15,1 13,5 29 16 - - 1018,1 10 60
16.06.2019 11:00:00 15,3 14,0 29 16 - - 1017,7 9 60
16.06.2019 10:00:00 15,6 13,1 36 19 - - 1017,2 10 0
16.06.2019 09:00:00 14,8 13,3 25 14 - - 1016,9 10 0
16.06.2019 08:00:00 14,9 13,5 22 12 - - 1016,6 10 18
16.06.2019 07:00:00 15,0 13,1 22 12 - - 1016,4 10 48
16.06.2019 06:00:00 15,2 12,9 25 14 - - 1016,1 0,9 30
16.06.2019 05:00:00 15,0 13,3 25 14 - - 1016,2 10 0
16.06.2019 04:00:00 14,7 13,9 22 12 - - 1016,2 10 0
16.06.2019 03:00:00 14,4 13,7 18 10 - - 1016,4 10 0
16.06.2019 02:00:00 14,4 13,0 14 8 - - 1016,2 10 0
16.06.2019 01:00:00 14,5 12,6 14 8 - - 1015,8 10 0
16.06.2019 00:00:00 14,5 12,7 18 10 - - 1015,2 10 0
15.06.2019 23:00:00 14,2 13,0 14 8 - - 1015,0 10 0
15.06.2019 22:00:00 14,0 12,3 14 8 - - 1015,2 10 54
15.06.2019 21:00:00 14,2 12,4 18 10 - - 1014,9 10 36
15.06.2019 20:00:00 14,0 12,6 29 16 - - 1014,6 10 6
15.06.2019 19:00:00 14,1 13,2 29 16 - - 1013,9 10 36
15.06.2019 18:00:00 14,1 13,6 25 14 - - 1013,1 10 36
15.06.2019 17:00:00 13,6 13,6 36 19 - - 1012,4 8 0
15.06.2019 16:00:00 14,0 14,0 29 16 - - 1011,9 5 0
15.06.2019 15:00:00 13,9 13,9 29 16 - - 1011,0 10 0
15.06.2019 14:00:00 13,8 13,8 22 12 - - 1010,7 8 0
15.06.2019 13:00:00 13,9 13,9 22 12 - - 1010,4 5 0
15.06.2019 12:00:00 14,0 14,0 14 8 - - 1010,4 3,2 0
15.06.2019 11:00:00 14,2 14,3 14 8 - - 1010,7 2,2 0
15.06.2019 10:00:00 14,6 14,6 14 8 - - 1010,3 5 0
15.06.2019 09:00:00 14,8 14,6 18 10 - - 1010,6 9 0
15.06.2019 08:00:00 15,0 14,6 18 10 - - 1011,1 10 0
15.06.2019 07:00:00 15,0 14,6 11 6 - - 1011,5 10 0
15.06.2019 06:00:00 15,4 14,7 18 10 - - 1011,6 10 0
15.06.2019 05:00:00 15,4 15,0 18 10 - - 1012,1 10 0
15.06.2019 04:00:00 15,3 14,9 18 10 - - 1012,9 10 0
15.06.2019 03:00:00 15,3 14,8 14 8 - - 1013,5 10 0
15.06.2019 02:00:00 15,2 14,4 11 6 - - 1014,4 10 0
15.06.2019 01:00:00 15,4 14,6 14 8 - - 1014,7 10 0
15.06.2019 00:00:00 15,8 14,4 18 10 - - 1015,1 10 0
14.06.2019 23:00:00 15,8 13,8 18 10 - - 1015,0 10 0
14.06.2019 22:00:00 15,8 13,7 11 6 - - 1015,0 10 24
14.06.2019 21:00:00 16,6 14,4 14 8 - - 1014,8 10 60
14.06.2019 20:00:00 16,3 14,4 14 8 - - 1014,6 10 60
14.06.2019 19:00:00 16,0 14,4 14 8 - - 1014,3 10 60
14.06.2019 18:00:00 15,8 14,6 14 8 - - 1014,6 10 60
14.06.2019 17:00:00 15,6 14,3 11 6 - - 1015,1 10 -
14.06.2019 16:00:00 15,5 13,9 18 10 - - 1015,3 10 60
14.06.2019 15:00:00 15,0 14,1 22 12 - - 1015,1 10 60
14.06.2019 14:00:00 15,0 13,5 22 12 - - 1014,9 10 18
14.06.2019 13:00:00 14,8 13,6 18 10 - - 1016,2 10 0
14.06.2019 12:00:00 15,0 12,8 18 10 - - 1015,3 10 0
14.06.2019 11:00:00 14,8 12,9 18 10 - - 1014,7 10 42
14.06.2019 10:00:00 14,6 12,7 25 14 - - 1014,5 7 48
14.06.2019 09:00:00 14,4 12,6 29 16 - - 1014,1 10 42
14.06.2019 08:00:00 14,2 12,5 29 16 - - 1013,9 10 48
14.06.2019 07:00:00 14,2 12,5 25 14 - - 1013,5 10 48
14.06.2019 06:00:00 14,0 12,2 25 14 - - 1012,8 10 36
14.06.2019 05:00:00 14,2 12,2 25 14 - - 1012,4 10 0
14.06.2019 04:00:00 14,2 12,1 29 16 - - 1012,2 10 0
14.06.2019 03:00:00 14,2 12,4 32 18 - - 1012,2 10 0
14.06.2019 02:00:00 14,6 12,8 29 16 - - 1012,0 10 0
14.06.2019 01:00:00 14,8 12,9 29 16 - - 1011,8 10 0
14.06.2019 00:00:00 15,0 13,2 29 16 50 27 1011,4 10 0
13.06.2019 23:00:00 15,3 12,4 25 14 - - 1011,0 10 0
13.06.2019 22:00:00 15,1 12,1 22 12 - - 1010,8 10 -
13.06.2019 21:00:00 14,4 12,6 14 8 - - 1010,5 10 0
13.06.2019 20:00:00 14,5 12,0 18 10 - - 1010,5 10 6
13.06.2019 19:00:00 14,0 11,0 29 16 54 29 1010,8 8 0
13.06.2019 18:00:00 15,5 12,2 22 12 - - 1010,4 10 12
13.06.2019 17:00:00 14,6 13,0 11 6 - - 1010,5 10 0
13.06.2019 16:00:00 14,2 12,4 14 8 - - 1010,6 10 18
13.06.2019 15:00:00 13,7 10,7 29 16 47 25 1010,3 10 6
13.06.2019 14:00:00 14,7 11,9 40 21 - - 1010,0 10 30
13.06.2019 13:00:00 14,6 11,7 40 21 54 29 1009,5 10 60
13.06.2019 12:00:00 14,4 11,3 43 23 54 29 1009,1 10 60
13.06.2019 11:00:00 14,3 12,1 36 19 - - 1008,6 9 54
13.06.2019 10:00:00 13,9 12,0 36 19 - - 1008,5 0,3 60
13.06.2019 09:00:00 13,7 11,6 32 18 - - 1008,3 10 54
13.06.2019 08:00:00 13,9 11,7 32 18 - - 1008,6 10 54
13.06.2019 07:00:00 14,2 12,5 29 16 - - 1008,3 10 54
13.06.2019 06:00:00 13,8 12,9 22 12 - - 1008,4 7 0
13.06.2019 05:00:00 13,6 12,7 29 16 - - 1008,2 10 0
13.06.2019 04:00:00 13,5 11,8 32 18 - - 1008,2 10 0
13.06.2019 03:00:00 13,5 12,4 36 19 54 29 1008,0 10 0
13.06.2019 02:00:00 13,8 11,7 43 23 - - 1008,2 10 0
13.06.2019 01:00:00 13,8 12,0 43 23 58 31 1007,9 10 0
13.06.2019 00:00:00 14,2 13,0 47 25 58 31 1007,7 10 0
12.06.2019 23:00:00 14,7 13,2 47 25 - - 1007,1 10 0
12.06.2019 22:00:00 15,4 14,1 32 18 - - 1006,9 10 0
12.06.2019 21:00:00 14,2 14,2 18 10 - - 1006,3 2,7 0
12.06.2019 20:00:00 14,0 14,0 11 6 - - 1006,1 2,6 0
12.06.2019 19:00:00 13,8 13,8 18 10 - - 1006,5 6 0
12.06.2019 18:00:00 13,6 13,6 29 16 47 25 1007,2 4,3 0
12.06.2019 17:00:00 13,2 13,2 25 14 - - 1008,3 6 0
12.06.2019 16:00:00 13,0 12,9 22 12 - - 1008,6 9 0
12.06.2019 15:00:00 12,8 12,8 18 10 - - 1009,6 8 0
12.06.2019 14:00:00 12,9 12,7 25 14 - - 1009,4 9 0
12.06.2019 13:00:00 12,8 12,2 22 12 - - 1010,5 10 18
12.06.2019 12:00:00 12,8 11,5 14 8 - - 1011,3 10 60
12.06.2019 11:00:00 12,7 11,8 18 10 - - 1011,4 10 60
12.06.2019 10:00:00 13,1 12,1 18 10 - - 1011,4 10 60
12.06.2019 09:00:00 13,1 12,1 11 6 - - 1011,0 10 60
12.06.2019 08:00:00 13,3 12,0 7 4 - - 1010,7 10 60
12.06.2019 07:00:00 13,2 12,5 7 4 - - 1010,8 10 30
12.06.2019 06:00:00 13,1 12,6 7 4 - - 1011,4 10 0
12.06.2019 05:00:00 12,8 12,0 11 6 - - 1012,2 10 0
12.06.2019 04:00:00 13,2 12,6 7 4 - - 1013,1 10 0
12.06.2019 03:00:00 13,4 12,6 4 2 - - 1012,6 10 0
12.06.2019 02:00:00 13,6 12,2 7 4 - - 1012,4 10 0
12.06.2019 01:00:00 13,4 12,9 7 4 - - 1012,5 10 0
12.06.2019 00:00:00 13,8 13,3 14 8 - - 1012,1 10 0
11.06.2019 23:00:00 13,4 13,1 18 10 - - 1012,5 10 0
11.06.2019 22:00:00 13,3 13,0 22 12 - - 1012,3 10 0
11.06.2019 21:00:00 13,9 13,8 18 10 - - 1011,9 10 6
11.06.2019 20:00:00 14,1 13,9 18 10 - - 1011,4 10 0

tt = temperature
td = dewpoint
ff = wind speed
fx = gusts
ppp = reduced air pressure
vv = visibility
sd = sunshine duration

Next stations